Regional Weather Roundup
Issued by NWS Huntsville, AL

Home | Current Version | Previous Version | Text Only | Print | Product List | Glossary On
Versions: 1 2 3 4 5 6 7 8 9 10 11 12 13 14 15 16 17 18 19 20 21 22 23 24 25 26 27 28 29 30 31 32 33 34 35 36 37 38 39 40 41 42 43 44 45 46 47 48 49 50
000
ASUS44 KHUN 041210
RWRHUN

WEATHER ROUNDUP FOR THE TENNESSEE VALLEY
NATIONAL WEATHER SERVICE HUNTSVILLE AL
600 AM CST SUN DEC 04 2016

ALZ001>004-041300-
NORTHWEST ALABAMA

CITY           SKY/WX    TMP DP  RH WIND       PRES   REMARKS
COURTLAND HCN    N/A     45 N/A N/A E8          N/A
RUSSELLVILLE     N/A     45 N/A N/A MISG        N/A
SHOALS AIRPORT LGT RAIN  46  43  89 E12G17    30.06R
6HR MIN TEMP:  43; 6HR MAX TEMP:  47; 6HR PCP:  1.51;

SHOALS TVA RES   N/A     45 N/A N/A MISG        N/A
$$

ALZ005>007-016-041300-
NORTH CENTRAL ALABAMA

CITY           SKY/WX    TMP DP  RH WIND       PRES   REMARKS
CULLMAN AG STN   N/A     45 N/A N/A E8          N/A
DECATUR AP     LGT RAIN  45  45 100 E8        30.04F FOG
6HR MIN TEMP:  42; 6HR MAX TEMP:  45; 6HR PCP:  0.33;

HUNTSVILLE AP  LGT RAIN  46  44  93 E12       30.06F
6HR MIN TEMP:  44; 6HR MAX TEMP:  47; 6HR PCP:  0.35;

MERIDIANVILLE  RAIN      45  41  87 E7        30.07S
REDSTONE ARSN  LGT RAIN  45  43  93 SE6       30.06S FOG
VINEMONT AP    DRIZZLE   43  41  93 E6        30.06S
$$

ALZ008>010-041300-
NORTHEAST ALABAMA

CITY           SKY/WX    TMP DP  RH WIND       PRES   REMARKS
ALBERTVILLE    DRIZZLE   43  43 100 E12G18    30.05S
FORT PAYNE     DRIZZLE   43  37  81 NE6       30.09F
SCOTTSBORO AP  CLOUDY    43  43 100 NE7       30.10F
SCOTTSBORO HCN   N/A     43 N/A N/A MISG        N/A
VALLEY HEAD      N/A     43 N/A N/A MISG        N/A
$$

TNZ076-096-097-041300-
SOUTHEASTERN MIDDLE TENNESSEE

CITY           SKY/WX    TMP DP  RH WIND       PRES   REMARKS
TULLAHOMA      MOCLDY    41  41 100 VRB7      30.05F
WINCHESTER     CLOUDY    43  41  93 SE15      30.05F
$$

...SURROUNDING SITES...

CITY           SKY/WX    TMP DP  RH WIND       PRES   REMARKS
ATLANTA        LGT RAIN  46  43  89 E13       30.12F
ANNISTON       LGT RAIN  46  44  93 E9        30.08S
BIRMINGHAM     CLOUDY    46  45  96 E8G18     30.03S
CHATTANOOGA    LGT RAIN  42  39  89 N9        30.15F FOG
CORINTH        LGT RAIN  45  43  93 E5        30.02F
DALTON         RAIN      41  41 100 CALM      30.13F
GADSDEN        RAIN      45  44  97 E13       30.09F
GOLDEN TRNGL   CLOUDY    45  39  81 E9        29.94F FOG
HALEYVILLE     LGT RAIN  43  42  97 VRB5      30.03F
JACKSON TN     CLOUDY    42  50 100 E9        30.02F
MEMPHIS        CLOUDY    43  42  97 E7        29.98F
NASHVILLE      CLOUDY    42  40  92 N6        30.13R
OXFORD MS      LGT RAIN  43  41  93 E6        30.01F
ROME           RAIN      44  42  93 E7        30.12F FOG
SAVANNAH       CLOUDY    45  43  93 CALM      30.04F FOG
TUPELO         CLOUDY    46  43  89 N7        30.01F
TUSCALOOSA     LGT RAIN  47  45  93 NE6       30.01R
$$

...GULF COAST WEATHER...

CITY           SKY/WX    TMP DP  RH WIND       PRES   REMARKS
GULFPORT       RAIN      63  62  97 CALM      29.91R FOG
PASCAGOULA     LGT RAIN  63  60  90 VRB5      29.90F FOG
MOBILE         HVY RAIN  56  54  93 E8        29.93F FOG
GULF SHORES    CLOUDY    70  68  93 SE9G18    29.94F
PENSACOLA      CLOUDY    72  66  81 SE12      29.95S
DESTIN         CLOUDY    64  56  75 E6        30.00R
PANAMA CITY    CLOUDY    58  54  86 E8        30.01S
APPALACHICOLA  PTCLDY    67  62  84 SE13G21   30.01S
$$




USA.gov is the U.S. government's official web portal to all federal, state and local government web resources and services.